User: anonymous   Login
Location: Newark
(23.3970°S, 47.6010°W)
Time: 19:51:05
(UTC+00:00)
Language:

Tiros 1 despin weight - Orbit

View from above orbital plane
View from above orbital plane
View from above satellite
View from above satellite

Ground track
Ground track

The orbit data is extracted from the following two-line orbital elements,

1 00115U 60002D   21023.47974222  .00000004  00000-0  27594-4 0  9995
2 00115  48.1670 296.1400 0033814 138.9459 221.4007 14.83685544224489
Epoch (UTC): 23 January 2021 11:30:49
Eccentricity: 0.0033814
inclination: 48.1670°
perigee height: 594 km
apogee height: 641 km
right ascension of ascending node: 296.1400°
argument of perigee: 138.9459°
revolutions per day: 14.83685544
mean anomaly at epoch: 221.4007°
orbit number at epoch: 22448

The dashed part of the orbit path shows where the satellite is in the earth's shadow,  

DLR